Regional Weather Roundup
Issued by NWS

Home | Current Version | Previous Version | Graphics & Text | Print | Product List | Glossary On
Versions: 1 2 3 4 5 6 7 8 9 10 11 12 13 14 15 16 17 18 19 20 21 22 23 24 25 26 27 28 29 30 31 32 33 34 35 36 37 38 39 40 41 42 43 44 45 46 47 48 49 50
320
ASUS43 KDTX 290401
RWRMI
MICHIGAN HOURLY REGIONAL WEATHER ROUNDUP
NATIONAL WEATHER SERVICE DETROIT/PONTIAC MI
1200 AM EDT FRI JUL 29 2016

NOTE: "FAIR" INDICATES FEW OR NO CLOUDS BELOW 12,000 FEET WITH NO
SIGNIFICANT WEATHER AND/OR OBSTRUCTION TO VISIBILITY.

MIZ047>049-052>055-059>063-066>070-074>076-081>083-290500-
SOUTHEAST LOWER MICHIGAN

CITY           SKY/WX    TMP DP  RH WIND       PRES   REMARKS
ADRIAN         CLOUDY    67  66  97 N6        29.94R
ALMA           CLOUDY    70  66  87 NE6       29.97S
ANN ARBOR      PTCLDY    69  65  86 CALM      29.95R
BAD AXE        PTCLDY    65  62  91 N5        29.97S
CARO           PTCLDY    65  62  91 CALM      29.96S
DETROIT CITY   PTCLDY    73  57  57 NE5       29.93R
DETROIT        CLOUDY    75  57  53 NE8       29.94R
FLINT          PTCLDY    74  60  61 NE9       29.96R
GROSSE ILE     MOCLDY    74  60  62 NE6       29.92R
HILLSDALE      MOCLDY    68  63  84 CALM      29.93F
HOWELL         CLOUDY    73  61  67 CALM      29.97R

CITY           SKY/WX    TMP DP  RH WIND       PRES   REMARKS
JACKSON        CLOUDY    71  66  84 NE6       29.94S
LAMBERTVILLE   CLEAR     71  67  87 CALM      29.93R
LANSING        CLOUDY    69  62  78 NE6       29.96R
LAPEER         FAIR      66  60  80 CALM      29.97R
MASON          CLOUDY    70  64  83 NE5       29.95S
MONROE         MOCLDY    74  62  66 NE5       29.92R
PONTIAC        CLOUDY    71  58  63 NE7       29.95R
PORT HOPE        N/A     72  64  76 NE13      29.95S
TRI CITIES     MOCLDY    69  66  90 NE3       29.97R
MIDLAND        FAIR      69  63  79 CALM      29.97R
TROY           CLOUDY    74  56  55 N6        29.96R
SAGINAW HB     CLOUDY    66  63  88 N3        29.96S
$$
MIZ043>046-050>051-056>058-064>065-071>073-077>080-290500-
SOUTHWEST LOWER MICHIGAN

CITY           SKY/WX    TMP DP  RH WIND       PRES   REMARKS
BATTLE CREEK   CLOUDY    68  68 100 NE6       29.95S
BENTON HARBOR  CLEAR     69  63  81 CALM      29.92S
BIG RAPIDS     CLOUDY    69  69 100 NE5       29.97S
COLDWATER      CLOUDY    70  68  92 N3        29.94R
FREMONT        FAIR      67  67 100 NE5       29.95R
HOLLAND        CLOUDY    71  67  87 E6        29.93F
GRAND RAPIDS   CLOUDY    69  63  81 E7        29.95S
IONIA          FAIR      69  59  71 NE7       29.95S
KALAMAZOO      PTCLDY    70  66  87 CALM      29.94R
LUDINGTON      CLOUDY    68  63  84 NE3       29.95S
MARSHALL       MOCLDY    72  66  81 CALM      29.94S
MOUNT PLEASANT CLOUDY    70  64  80 NE5       29.97R
MUSKEGON       PTCLDY    68  65  90 E5        29.95R
SOUTH HAVEN    CLOUDY    67  66  97 E3        29.92F
$$
MIZ016>042-290500-
NORTHERN LOWER MICHIGAN

CITY           SKY/WX    TMP DP  RH WIND       PRES   REMARKS
ALPENA         PTCLDY    66  60  81 N7        30.00R
BEAVER ISLAND  CLOUDY    62  57  83 CALM      30.03S
BELLAIRE       PTCLDY    66  56  70 CALM      29.99S
CADILLAC       CLOUDY    68  61  78 NE3       29.99S
CHARLEVOIX     CLOUDY    69  55  60 NE12      30.03S
FRANKFORT      CLOUDY    70  59  69 N9        29.98S
GAYLORD        CLOUDY    67  53  61 NE7       30.03R
GRAYLING       CLOUDY    66  58  76 NE3       30.01S
HARBOR SPRINGS CLOUDY    66  55  66 N5        30.01S
HOUGHTON LAKE  CLOUDY    67  57  70 E6        30.01R
MANISTEE       CLOUDY    72  61  68 NE3       29.96S
OSCODA         PTCLDY    65  56  74 NW5       29.98R
PELLSTON       CLOUDY    61  55  81 CALM      30.02R
ROGERS CITY    CLOUDY    67  58  73 W3        30.02R
TRAVERSE CITY  CLOUDY    74  58  57 NE7       29.97S
$$
MIZ007>008-015-290500-
EASTERN UPPER MICHIGAN

CITY           SKY/WX    TMP DP  RH WIND       PRES   REMARKS
KINROSS        PTCLDY    61  58  90 N6        30.03S
MACKINAC ISLAN CLOUDY    63  56  78 N6        30.02S
S. S. MARIE    CLOUDY    63  58  83 N3        30.02S
$$
MIZ004>006-011>014-085-290500-
CENTRAL UPPER MICHIGAN

CITY           SKY/WX    TMP DP  RH WIND       PRES   REMARKS
ESCANABA       PTCLDY    59  54  82 N6        30.02S
MENOMINEE      CLOUDY   N/A N/A N/A NE8       30.04R
SAWYER-GWINN   CLEAR     53  51  92 N6        30.07S
$$
MIZ001>003-009>011-084-290500-
WESTERN UPPER MICHIGAN

CITY           SKY/WX    TMP DP  RH WIND       PRES   REMARKS
IRON MOUNTAIN  CLOUDY    58  50  75 NW3       30.06R
HOUGHTON       CLEAR     52  49  89 N3        30.09R
COPPER HARBOR    N/A     58  55  90 CALM      30.08R
IRONWOOD       CLEAR     52  48  87 CALM      30.09R
$$

ABBREVIATIONS USED IN REMARKS
   TC - TEMPERATURE IN CELSIUS
  WCI - WIND CHILL INDEX
   HX - HEAT INDEX
  VSB - VISIBILITY





USA.gov is the U.S. government's official web portal to all federal, state and local government web resources and services.